FW7989 Weather Reports


Display with metric or nautical units.
time (UTC)temp
F
wind
direction
speed
MPH
gust
MPH
rain 1hr
in
rain 24hr
in
rain mn
in
humidity
%
barometer
mb
20260510013600 51 63 4.0 9.0 0.00 0.00 0.00 78 1018.4
20260510013126 51 98 3.0 9.0 0.00 0.00 0.00 79 1018.3
20260510012558 51 66 1.0 8.0 0.00 0.00 0.00 79 1018.4
20260510012057 51 115 0.0 7.0 0.00 0.00 0.00 79 1018.5
20260510011558 51 145 1.0 9.0 0.00 0.00 0.00 79 1018.3
20260510011058 52 0 2.0 9.0 0.00 0.00 0.00 79 1018.2
20260510010558 52 59 2.0 10.0 0.00 0.00 0.00 78 1018.2
20260510010058 52 74 3.0 14.0 0.00 0.00 0.00 78 1018.1
20260510005558 52 61 2.0 14.0 0.00 0.00 0.00 78 1018.0
20260510005100 52 88 4.0 14.0 0.00 0.00 0.00 78 1018.0
20260510004559 52 54 4.0 11.0 0.00 0.00 0.00 77 1017.9
20260510004059 53 119 2.0 13.0 0.00 0.00 0.00 77 1018.1
20260510003559 53 81 4.0 13.0 0.00 0.00 0.00 77 1018.1
20260510003107 53 53 3.0 13.0 0.00 0.00 0.00 77 1018.2
20260510002601 53 112 3.0 8.0 0.00 0.00 0.00 77 1018.1
20260510002105 53 320 2.0 6.0 0.00 0.00 0.00 77 1018.1
20260510001559 53 287 2.0 7.0 0.00 0.00 0.00 78 1018.1
20260510001059 53 0 2.0 7.0 0.00 0.00 0.00 78 1018.0
20260510000559 53 230 1.0 9.0 0.00 0.00 0.00 78 1018.1
20260510000126 54 92 2.0 9.0 0.00 0.00 0.00 77 1017.9
20260509235558 54 96 3.0 9.0 0.00 0.00 0.00 77 1017.9
20260509235058 54 319 4.0 10.0 0.00 0.00 0.00 77 1017.9
20260509234556 54 294 2.0 11.0 0.00 0.00 0.00 76 1018.0
20260509234058 54 94 3.0 11.0 0.00 0.00 0.00 76 1017.9
20260509233558 55 83 3.0 18.0 0.00 0.00 0.00 76 1017.9
20260509233058 55 93 6.0 18.0 0.00 0.00 0.00 76 1017.8
20260509232559 55 109 5.0 18.0 0.00 0.00 0.00 76 1017.8
20260509232059 55 19 7.0 17.0 0.00 0.00 0.00 76 1017.7
20260509231610 55 59 2.0 13.0 0.00 0.00 0.00 76 1017.7
20260509231058 55 24 6.0 13.0 0.00 0.00 0.00 76 1018.0
20260509230558 55 59 6.0 11.0 0.00 0.00 0.00 76 1018.0
20260509230108 55 84 5.0 11.0 0.00 0.00 0.00 76 1017.8
20260509225600 55 337 3.0 12.0 0.00 0.00 0.00 76 1017.5
20260509225110 56 136 5.0 12.0 0.00 0.00 0.00 76 1017.4
20260509224556 56 122 4.0 12.0 0.00 0.00 0.00 76 1017.4
20260509224058 56 288 3.0 10.0 0.00 0.00 0.00 76 1017.4
20260509223558 56 352 1.0 9.0 0.00 0.00 0.00 76 1017.5
20260509223110 56 46 2.0 12.0 0.00 0.00 0.00 75 1017.5
20260509222558 56 89 2.0 12.0 0.00 0.00 0.00 75 1017.5
20260509222058 56 40 3.0 12.0 0.00 0.00 0.00 76 1017.5
20260509221626 56 161 2.0 7.0 0.00 0.00 0.00 76 1017.5
20260509221059 57 83 2.0 6.0 0.00 0.00 0.00 76 1017.5
20260509220558 57 154 1.0 11.0 0.00 0.00 0.00 76 1017.4
20260509220057 57 37 2.0 11.0 0.00 0.00 0.00 76 1017.4
20260509215559 57 360 3.0 11.0 0.00 0.00 0.00 76 1017.5
20260509215103 57 350 3.0 11.0 0.00 0.00 0.00 76 1017.6
20260509214604 57 275 4.0 12.0 0.00 0.00 0.00 75 1017.5
20260509214059 57 325 6.0 12.0 0.00 0.00 0.00 75 1017.4
20260509213558 57 317 6.0 12.0 0.00 0.00 0.00 75 1017.4
20260509213057 57 333 5.0 11.0 0.00 0.00 0.00 75 1017.5
20260509212559 57 256 4.0 12.0 0.00 0.00 0.00 75 1017.4
20260509212058 57 296 5.0 12.0 0.00 0.00 0.00 74 1017.5
20260509211605 57 319 6.0 13.0 0.00 0.00 0.00 74 1017.5
20260509211058 58 352 6.0 13.0 0.00 0.00 0.00 74 1017.3
20260509210558 58 352 7.0 12.0 0.00 0.00 0.00 74 1017.3
20260509210059 58 351 5.0 11.0 0.00 0.00 0.00 74 1017.2
20260509205558 58 284 5.0 12.0 0.00 0.00 0.00 73 1017.1
20260509205058 58 313 6.0 13.0 0.00 0.00 0.00 73 1017.1
20260509204602 59 316 7.0 13.0 0.00 0.00 0.00 72 1017.2
20260509204058 59 319 7.0 12.0 0.00 0.00 0.00 71 1017.1
20260509203601 59 338 5.0 17.0 0.00 0.00 0.00 71 1016.9
20260509203058 60 10 7.0 17.0 0.00 0.00 0.00 70 1016.9
20260509202559 60 323 6.0 17.0 0.00 0.00 0.00 70 1017.0
20260509202101 60 344 8.0 17.0 0.00 0.00 0.00 69 1016.9
20260509201558 60 347 7.0 17.0 0.00 0.00 0.00 69 1017.0
20260509201102 60 350 9.0 16.0 0.00 0.00 0.00 68 1016.8
20260509200559 61 352 8.0 14.0 0.00 0.00 0.00 68 1016.9
20260509200109 61 349 6.0 14.0 0.00 0.00 0.00 67 1016.8
20260509195600 61 347 8.0 13.0 0.00 0.00 0.00 66 1016.7
20260509195101 61 5 7.0 12.0 0.00 0.00 0.00 62 1016.7
20260509194559 60 321 2.0 4.0 0.00 0.00 0.00 59 1016.7
20260509194058 61 0 1.0 4.0 0.00 0.00 0.00 59 1016.6
20260509193558 61 256 1.0 4.0 0.00 0.00 0.00 58 1016.6
20260509193104 61 278 1.0 4.0 0.00 0.00 0.00 57 1016.5
20260509192558 62 232 0.0 6.0 0.00 0.00 0.00 58 1016.6
20260509192102 62 232 1.0 6.0 0.00 0.00 0.00 57 1016.5
20260509191605 63 350 3.0 6.0 0.00 0.00 0.00 55 1016.5
20260509191058 63 300 3.0 6.0 0.00 0.00 0.00 55 1016.5
20260509190557 63 320 3.0 6.0 0.00 0.00 0.00 54 1016.6
20260509190100 64 55 3.0 7.0 0.00 0.00 0.00 53 1016.4
20260509185559 64 339 3.0 8.0 0.00 0.00 0.00 53 1016.5
20260509185059 65 315 3.0 8.0 0.00 0.00 0.00 52 1016.5
20260509184610 66 328 2.0 7.0 0.00 0.00 0.00 52 1016.3
20260509184058 66 333 2.0 10.0 0.00 0.00 0.00 51 1016.4
20260509183558 66 315 2.0 10.0 0.00 0.00 0.00 50 1016.4
20260509183108 66 332 5.0 10.0 0.00 0.00 0.00 49 1016.2
20260509182559 67 338 3.0 11.0 0.00 0.00 0.00 49 1016.2
20260509182058 68 317 3.0 12.0 0.00 0.00 0.00 50 1016.2
20260509181601 68 311 5.0 12.0 0.00 0.00 0.00 49 1016.2
20260509181059 68 338 5.0 12.0 0.00 0.00 0.00 49 1016.1
20260509180559 69 338 4.0 10.0 0.00 0.00 0.00 48 1016.0
20260509180109 69 348 4.0 10.0 0.00 0.00 0.00 50 1016.0
20260509175558 68 352 4.0 12.0 0.00 0.00 0.00 49 1015.9
20260509175058 69 32 4.0 13.0 0.00 0.00 0.00 49 1015.9
20260509174602 69 352 5.0 13.0 0.00 0.00 0.00 48 1016.0
20260509174058 69 22 5.0 12.0 0.00 0.00 0.00 50 1015.8
20260509173557 69 328 6.0 12.0 0.00 0.00 0.00 49 1015.7
20260509173104 69 315 5.0 11.0 0.00 0.00 0.00 49 1015.8
20260509172559 69 328 3.0 10.0 0.00 0.00 0.00 48 1015.9
20260509172101 69 350 2.0 8.0 0.00 0.00 0.00 48 1015.8
20260509171558 69 5 2.0 5.0 0.00 0.00 0.00 45 1015.9
20260509171058 69 74 2.0 9.0 0.00 0.00 0.00 45 1016.0
20260509170559 70 360 2.0 11.0 0.00 0.00 0.00 48 1015.9
20260509170059 70 335 4.0 12.0 0.00 0.00 0.00 47 1016.0
20260509165559 71 340 6.0 13.0 0.00 0.00 0.00 48 1015.9
20260509165058 71 323 6.0 13.0 0.00 0.00 0.00 48 1016.0
20260509164559 71 360 4.0 10.0 0.00 0.00 0.00 51 1015.9
20260509164058 71 71 3.0 12.0 0.00 0.00 0.00 48 1016.0
20260509163557 71 55 4.0 12.0 0.00 0.00 0.00 47 1016.0
20260509163102 71 10 2.0 11.0 0.00 0.00 0.00 49 1016.1
20260509162558 71 32 4.0 11.0 0.00 0.00 0.00 48 1016.1
20260509162058 71 360 5.0 11.0 0.00 0.00 0.00 46 1016.2
20260509161604 71 85 2.0 14.0 0.00 0.00 0.00 48 1016.2
20260509161059 71 312 8.0 14.0 0.00 0.00 0.00 48 1016.2
20260509160559 71 328 7.0 14.0 0.00 0.00 0.00 47 1016.3
20260509160101 71 333 7.0 14.0 0.00 0.00 0.00 47 1016.3
20260509155559 71 340 2.0 14.0 0.00 0.00 0.00 52 1016.2
20260509155058 71 5 6.0 14.0 0.00 0.00 0.00 47 1016.3
20260509154601 71 31 4.0 12.0 0.00 0.00 0.00 50 1016.3
20260509154059 71 315 6.0 13.0 0.00 0.00 0.00 49 1016.3
20260509153558 71 5 4.0 13.0 0.00 0.00 0.00 49 1016.4
20260509153100 71 360 4.0 11.0 0.00 0.00 0.00 49 1016.4
20260509152558 71 315 3.0 10.0 0.00 0.00 0.00 51 1016.4
20260509152058 70 336 6.0 10.0 0.00 0.00 0.00 50 1016.4
20260509151600 70 338 4.0 9.0 0.00 0.00 0.00 53 1016.5
20260509151100 69 307 5.0 12.0 0.00 0.00 0.00 54 1016.5
20260509150558 68 304 5.0 12.0 0.00 0.00 0.00 52 1016.6
20260509150103 67 59 6.0 10.0 0.00 0.00 0.00 48 1016.6
20260509145558 67 65 4.0 10.0 0.00 0.00 0.00 49 1016.6
20260509145058 68 108 4.0 9.0 0.00 0.00 0.00 51 1016.6
20260509144600 68 64 4.0 10.0 0.00 0.00 0.00 48 1016.7
20260509144058 68 51 2.0 10.0 0.00 0.00 0.00 47 1016.7
20260509143558 69 44 5.0 11.0 0.00 0.00 0.00 46 1016.7
20260509143102 70 59 6.0 11.0 0.00 0.00 0.00 50 1016.7
20260509142558 70 22 5.0 11.0 0.00 0.00 0.00 48 1016.6
20260509142058 70 48 3.0 11.0 0.00 0.00 0.00 46 1016.6
20260509141603 69 88 5.0 11.0 0.00 0.00 0.00 49 1016.6
20260509141105 69 52 4.0 11.0 0.00 0.00 0.00 51 1016.5
20260509140602 68 88 6.0 11.0 0.00 0.00 0.00 48 1016.5
20260509140106 68 80 5.0 9.0 0.00 0.00 0.00 50 1016.5
20260509135558 68 88 3.0 9.0 0.00 0.00 0.00 48 1016.5
20260509135058 68 112 3.0 9.0 0.00 0.00 0.00 50 1016.6
20260509134559 68 90 2.0 9.0 0.00 0.00 0.00 52 1016.6
20260509134057 68 57 5.0 9.0 0.00 0.00 0.00 48 1016.6
20260509133559 68 63 3.0 10.0 0.00 0.00 0.00 49 1016.6
20260509133057 68 78 4.0 10.0 0.00 0.00 0.00 49 1016.6
20260509132559 68 65 5.0 10.0 0.00 0.00 0.00 51 1016.6
20260509132058 68 69 4.0 11.0 0.00 0.00 0.00 49 1016.6
20260509131559 68 77 6.0 11.0 0.00 0.00 0.00 49 1016.6
20260509131058 68 94 3.0 8.0 0.00 0.00 0.00 50 1016.6
20260509130558 68 74 3.0 9.0 0.00 0.00 0.00 50 1016.7
20260509130100 68 40 4.0 9.0 0.00 0.00 0.00 50 1016.8
20260509125559 68 84 4.0 9.0 0.00 0.00 0.00 50 1016.9
20260509125058 68 113 4.0 8.0 0.00 0.00 0.00 55 1016.8
20260509124605 68 32 3.0 9.0 0.00 0.00 0.00 52 1016.9
20260509124058 68 78 4.0 9.0 0.00 0.00 0.00 53 1017.0
20260509123602 68 59 3.0 9.0 0.00 0.00 0.00 53 1017.1
20260509123136 68 32 2.0 9.0 0.00 0.00 0.00 52 1017.0
20260509122557 68 41 4.0 9.0 0.00 0.00 0.00 53 1017.1
20260509122058 68 49 3.0 8.0 0.00 0.00 0.00 49 1017.1
20260509121602 68 91 3.0 9.0 0.00 0.00 0.00 50 1017.1
20260509121058 68 83 5.0 9.0 0.00 0.00 0.00 51 1017.2
20260509120559 68 45 3.0 10.0 0.00 0.00 0.00 53 1017.1
20260509120101 68 19 4.0 13.0 0.00 0.00 0.00 53 1017.2
20260509115558 68 46 3.0 13.0 0.00 0.00 0.00 56 1017.2
20260509115058 68 69 7.0 13.0 0.00 0.00 0.00 52 1017.3
20260509114601 68 67 4.0 10.0 0.00 0.00 0.00 51 1017.3
20260509114058 68 69 5.0 10.0 0.00 0.00 0.00 51 1017.3
20260509113601 68 61 4.0 9.0 0.00 0.00 0.00 56 1017.5
20260509113106 68 344 3.0 9.0 0.00 0.00 0.00 57 1017.4
20260509112558 68 67 3.0 11.0 0.00 0.00 0.00 53 1017.5
20260509112058 68 159 3.0 11.0 0.00 0.00 0.00 54 1017.4
20260509111601 68 47 4.0 11.0 0.00 0.00 0.00 55 1017.6
20260509111058 68 142 4.0 11.0 0.00 0.00 0.00 59 1017.6
20260509110557 68 119 4.0 11.0 0.00 0.00 0.00 51 1017.7
20260509110100 67 140 3.0 9.0 0.00 0.00 0.00 54 1017.7
20260509105559 67 96 3.0 9.0 0.00 0.00 0.00 56 1017.7
20260509105059 67 104 3.0 9.0 0.00 0.00 0.00 52 1017.8
20260509104557 67 52 4.0 9.0 0.00 0.00 0.00 53 1017.7
20260509104059 67 76 3.0 9.0 0.00 0.00 0.00 55 1017.7
20260509103558 68 44 1.0 8.0 0.00 0.00 0.00 56 1017.8
20260509103103 67 142 3.0 9.0 0.00 0.00 0.00 55 1017.7
20260509102558 67 49 4.0 12.0 0.00 0.00 0.00 58 1017.8
20260509102059 66 94 4.0 12.0 0.00 0.00 0.00 56 1017.8
20260509101603 66 50 6.0 12.0 0.00 0.00 0.00 55 1017.7
20260509101059 66 84 3.0 10.0 0.00 0.00 0.00 56 1017.9
20260509100559 67 113 6.0 10.0 0.00 0.00 0.00 56 1017.8
20260509100101 67 116 2.0 6.0 0.00 0.00 0.00 59 1017.8
20260509095558 66 115 2.0 4.0 0.00 0.00 0.00 58 1017.7
20260509095058 66 25 1.0 6.0 0.00 0.00 0.00 61 1017.7
20260509094559 65 57 1.0 6.0 0.00 0.00 0.00 63 1017.8
20260509094058 65 329 2.0 6.0 0.00 0.00 0.00 63 1017.9
20260509093559 64 347 2.0 9.0 0.00 0.00 0.00 65 1017.8
20260509093100 64 38 3.0 9.0 0.00 0.00 0.00 61 1017.9
20260509092559 64 106 3.0 8.0 0.00 0.00 0.00 61 1017.9
20260509092103 64 26 4.0 8.0 0.00 0.00 0.00 60 1017.9
20260509091557 64 360 4.0 8.0 0.00 0.00 0.00 61 1017.8
20260509091059 64 76 3.0 8.0 0.00 0.00 0.00 63 1017.8
20260509090602 63 45 3.0 8.0 0.00 0.00 0.00 64 1017.9
20260509090101 62 33 3.0 8.0 0.00 0.00 0.00 66 1018.0
20260509085558 62 69 3.0 9.0 0.00 0.00 0.00 65 1018.0
20260509085058 61 117 3.0 9.0 0.00 0.00 0.00 66 1018.0
20260509084606 61 60 3.0 9.0 0.00 0.00 0.00 65 1017.9
20260509084101 61 98 1.0 8.0 0.00 0.00 0.00 66 1018.1
20260509083557 61 9 3.0 8.0 0.00 0.00 0.00 65 1018.0
20260509083101 61 24 3.0 8.0 0.00 0.00 0.00 68 1018.0
20260509082559 60 63 2.0 7.0 0.00 0.00 0.00 69 1018.0
20260509082059 60 82 2.0 7.0 0.00 0.00 0.00 70 1018.0
20260509081601 60 43 2.0 7.0 0.00 0.00 0.00 68 1018.0
20260509081059 59 22 3.0 7.0 0.00 0.00 0.00 68 1018.1
20260509080559 59 76 4.0 9.0 0.00 0.00 0.00 68 1018.1
20260509080101 59 53 4.0 9.0 0.00 0.00 0.00 69 1018.1
20260509075558 58 81 3.0 9.0 0.00 0.00 0.00 69 1018.0
20260509075059 58 36 3.0 7.0 0.00 0.00 0.00 70 1018.0
20260509074609 58 78 3.0 8.0 0.00 0.00 0.00 68 1018.0
20260509074059 57 92 3.0 8.0 0.00 0.00 0.00 70 1018.0
20260509073602 57 38 4.0 8.0 0.00 0.00 0.00 69 1018.0
20260509073100 58 84 2.0 10.0 0.00 0.00 0.00 70 1018.0
20260509072601 57 61 3.0 10.0 0.00 0.00 0.00 70 1018.0
20260509072058 58 40 3.0 7.0 0.00 0.00 0.00 67 1017.9
20260509071614 57 360 2.0 6.0 0.00 0.00 0.00 69 1017.9
20260509071059 57 94 3.0 6.0 0.00 0.00 0.00 68 1017.9
20260509070559 57 342 2.0 5.0 0.00 0.00 0.00 69 1017.9
20260509070058 56 61 2.0 5.0 0.00 0.00 0.00 71 1017.9
20260509065558 56 93 2.0 7.0 0.00 0.00 0.00 70 1017.9
20260509065058 56 61 4.0 8.0 0.00 0.00 0.00 70 1017.7
20260509064603 56 65 4.0 8.0 0.00 0.00 0.00 70 1017.8
20260509064059 55 72 3.0 8.0 0.00 0.00 0.00 72 1017.9
20260509063601 55 25 3.0 8.0 0.00 0.00 0.00 71 1017.8
20260509063059 55 66 3.0 8.0 0.00 0.00 0.00 73 1017.7
20260509062559 54 27 2.0 5.0 0.00 0.00 0.00 73 1017.8
20260509062058 54 44 2.0 6.0 0.00 0.00 0.00 75 1017.8
20260509061603 53 46 3.0 9.0 0.00 0.00 0.00 74 1017.7
20260509061057 53 90 3.0 9.0 0.00 0.00 0.00 74 1017.7
20260509060558 53 46 4.0 9.0 0.00 0.00 0.00 75 1017.6
20260509055559 52 41 4.0 9.0 0.00 0.00 0.00 76 1017.6
20260509055101 51 75 4.0 10.0 0.00 0.00 0.00 77 1017.5
20260509054610 51 53 4.0 10.0 0.00 0.00 0.00 78 1017.4
20260509054058 51 71 4.0 9.0 0.00 0.00 0.00 78 1017.5
20260509053558 50 62 3.0 9.0 0.00 0.00 0.00 78 1017.4
20260509053104 50 28 3.0 9.0 0.00 0.00 0.00 78 1017.5
20260509052559 50 62 4.0 9.0 0.00 0.00 0.00 78 1017.4
20260509052058 50 76 3.0 8.0 0.00 0.00 0.00 78 1017.3
20260509051604 49 19 3.0 8.0 0.00 0.00 0.00 79 1017.4
20260509051059 49 62 4.0 8.0 0.00 0.00 0.00 79 1017.3
20260509050557 49 46 4.0 6.0 0.00 0.00 0.00 80 1017.4
20260509050100 48 42 3.0 6.0 0.00 0.00 0.00 80 1017.3
20260509045558 48 40 2.0 5.0 0.00 0.00 0.00 81 1017.4
20260509045058 48 40 3.0 6.0 0.00 0.00 0.00 81 1017.4
20260509044600 47 54 3.0 6.0 0.00 0.00 0.00 82 1017.3
20260509044059 46 58 3.0 5.0 0.00 0.00 0.00 84 1017.4
20260509043558 45 34 2.0 5.0 0.00 0.00 0.00 82 1017.5
20260509043102 46 41 2.0 4.0 0.00 0.00 0.00 79 1017.3
20260509042558 46 0 0.0 2.0 0.00 0.00 0.00 77 1017.4
20260509042058 47 0 0.0 3.0 0.00 0.00 0.00 74 1017.3
20260509041600 49 0 0.0 4.0 0.00 0.00 0.00 72 1017.5
20260509041100 49 61 2.0 7.0 0.00 0.00 0.00 76 1017.4
20260509040558 50 48 3.0 7.0 0.00 0.00 0.00 75 1017.3
20260509040100 50 71 3.0 8.0 0.00 0.00 0.00 75 1017.4
20260509035558 50 62 3.0 8.0 0.00 0.00 0.00 75 1017.3
20260509035059 50 67 3.0 8.0 0.00 0.00 0.00 75 1017.3
20260509034558 50 62 4.0 8.0 0.00 0.00 0.00 75 1017.4
20260509034100 49 55 3.0 7.0 0.00 0.00 0.00 75 1017.3
20260509033559 50 74 3.0 5.0 0.00 0.00 0.00 75 1017.3
20260509033100 50 47 3.0 6.0 0.00 0.00 0.00 74 1017.3
20260509032559 50 72 3.0 9.0 0.00 0.00 0.00 74 1017.3
20260509032102 50 75 5.0 9.0 0.00 0.00 0.00 74 1017.3
20260509031623 50 51 5.0 9.0 0.00 0.00 0.00 75 1017.4
20260509031058 50 71 5.0 9.0 0.00 0.00 0.00 76 1017.3
20260509030559 49 46 4.0 9.0 0.00 0.00 0.00 76 1017.4
20260509025602 48 69 3.0 7.0 0.00 0.00 0.00 80 1017.4
20260509025058 48 53 3.0 5.0 0.00 0.00 0.00 81 1017.4
20260509024604 47 48 2.0 6.0 0.00 0.00 0.00 83 1017.5
20260509024100 47 51 3.0 6.0 0.00 0.00 0.00 84 1017.5
20260509023558 46 61 3.0 8.0 0.00 0.00 0.00 86 1017.5
20260509023102 44 68 4.0 8.0 0.00 0.00 0.00 88 1017.4
20260509022559 44 59 2.0 7.0 0.00 0.00 0.00 87 1017.5
20260509022100 44 40 3.0 7.0 0.00 0.00 0.00 85 1017.5
20260509021559 44 48 1.0 4.0 0.00 0.00 0.00 84 1017.5
20260509021059 45 175 0.0 1.0 0.00 0.00 0.00 84 1017.5
20260509020558 45 0 0.0 1.0 0.00 0.00 0.00 84 1017.6
20260509020058 45 0 0.0 1.0 0.00 0.00 0.00 84 1017.5
20260509015558 46 0 0.0 0.0 0.00 0.00 0.00 83 1017.6
20260509015059 46 0 0.0 0.0 0.00 0.00 0.00 82 1017.5
20260509014600 47 0 0.0 0.0 0.00 0.00 0.00 81 1017.5
20260509014058 47 0 0.0 1.0 0.00 0.00 0.00 79 1017.6